Flag for U.S.A. Weather past 2 weeks in Arlington, Texas, U.S.A.

Now
84 °F

Sunny.


Feels Like: 87 °F
Forecast: 78 / 96 °F
Wind: 5 mph from North

Location: Arlington Municipal Airport

Current Time: Jul 14, 2014 at 9:16:51 AM

Latest Report: Jul 14, 2014 at 8:53 AM


Visibility: 10 mi

Pressure: 29.99 "Hg

Humidity: 57%

Dew point: 67 °F

Location of ArlingtonLocation

Historic Weather in Arlington — Graph

°F

Arlington temperature yesterday

Maximum temperature yesterday: 98 °F (at 3:53 PM)
Minimum temperature yesterday: 74 °F (at 1:53 AM)
Average temperature yesterday: 87 °F

Past Weeks' High & Low Weather Summary

 TemperatureHumidityPressure
High98 °F (Jul 13, 3:53 PM)88% (Jul 1, 5:53 AM)30.19 "Hg (Jul 1, 5:53 AM)
Low72 °F (Jul 4, 4:53 AM)25% (Jul 12, 11:53 AM)29.81 "Hg (Jun 30, 8:53 PM)
Average85 °F56%30.00 "Hg
* Reported Jun 29 8:01 AM — Jul 14 7:53 AM, Arlington, Weather by CustomWeather, © 2014

Note: Actual official high and low records may vary slightly from our data, if they occured in-between our weather recording intervals... More about our weather records

Advertising

Arlington weather history for previous 24 hours

 ConditionsComfort  
Time TempWeatherWind HumidityBarometerVisibility
7:53 AM
Jul 14
80 °FSunny.5 mph67%29.97 "Hg10 mi
6:53 AM76 °FClear.6 mph74%29.96 "Hg10 mi
5:53 AM77 °FClear.5 mph71%29.96 "Hg10 mi
4:53 AM77 °FClear.5 mph71%29.96 "Hg10 mi
3:53 AM80 °FClear.6 mph64%29.95 "Hg10 mi
2:53 AM82 °FClear.9 mph58%29.95 "Hg10 mi
1:53 AM81 °FClear.7 mph58%29.95 "Hg10 mi
12:53 AM83 °FClear.7 mph55%29.96 "Hg10 mi
11:53 PM
Jul 13
84 °FClear.6 mph53%29.96 "Hg10 mi
10:53 PM86 °FClear.6 mph49%29.96 "Hg10 mi
9:53 PM88 °FClear.5 mph46%29.96 "Hg10 mi
8:53 PM92 °FSunny.6 mph40%29.95 "Hg10 mi
7:53 PM95 °FSunny.6 mph35%29.94 "Hg10 mi
6:53 PM97 °FPassing clouds.7 mph33%29.93 "Hg10 mi
5:53 PM98 °FSunny.5 mph29%29.95 "Hg10 mi
4:53 PM98 °FSunny.8 mph29%29.96 "Hg10 mi
3:53 PM98 °FSunny.6 mph29%29.98 "Hg10 mi
2:53 PM97 °FSunny.6 mph29%30.01 "Hg10 mi
1:53 PM96 °FSunny.7 mph34%30.02 "Hg10 mi
12:53 PM94 °FPassing clouds.5 mph37%30.04 "Hg10 mi
11:53 AM94 °FSunny.5 mph40%30.05 "Hg10 mi
10:53 AM90 °FSunny.8 mph47%30.07 "Hg10 mi
9:53 AM88 °FSunny.6 mph52%30.08 "Hg10 mi
Weather by CustomWeather, © 2014

See weather overviewHow to use our weather pages